Regional Weather Roundup
Issued by NWS

Home | Current Version | Previous Version | Graphics & Text | Print | Product List | Glossary On
Versions: 1 2 3 4 5 6 7 8 9 10 11 12 13 14 15 16 17 18 19 20 21 22 23 24 25 26 27 28 29 30 31 32 33 34 35 36 37 38 39 40 41 42 43 44 45 46 47 48 49 50
721
ASUS43 KIND 221759
RWRIN

WEATHER ROUNDUP FOR INDIANA
NATIONAL WEATHER SERVICE INDIANAPOLIS IN
200 PM EDT SUN APR 22 2018

NOTE: "FAIR" INDICATES FEW OR NO CLOUDS BELOW 12,000 FEET WITH NO
SIGNIFICANT WEATHER AND/OR OBSTRUCTIONS TO VISIBILITY.

* - STATION DOES NOT REPORT WEATHER SUCH AS PRECIPITATION OR FOG.

+ - STATION NOT QUALITY CONTROLLED BY THE NATIONAL WEATHER SERVICE.
    USE DATA WITH CAUTION...ESPECIALLY DEWPOINT AND RELATIVE
    HUMIDITY OBSERVATIONS.

INZ001>003-010>013-019-020-221900-
NORTHWEST INDIANA

CITY           SKY/WX    TMP DP  RH WIND       PRES   REMARKS
GARY /AIRPORT/ PTSUNNY   57  27  30 NE9       30.32F
KNOX *+        FAIR      63  21  20 E10G22    30.30F
MONTICELLO +   FAIR      63  23  22 E9G16     30.27F
6HR MIN TEMP:  44; 6HR MAX TEMP:  61;


$$

LMZ046-743>745-221900-
SOUTHERN LAKE MICHIGAN

STATION/POSITION TIME  TEMP    WIND        PRES    WAVE
                       AIR SEA DIR/SP/G            HT
                 (UTC) (F)     (DEG/KT/KT) (MB)    (FT)
BURNS HARBOR     1740   47      50/  8/ 10 1026.8F
MICHIGAN CITY    1730   57      50/ 13/ 16   N/A

$$

INZ004-005-014>016-021>024-221900-
NORTH CENTRAL INDIANA

CITY           SKY/WX    TMP DP  RH WIND       PRES   REMARKS
GOSHEN         FAIR      60  28  29 E13       30.33F
6HR MIN TEMP:  41; 6HR MAX TEMP:  60; 6HR PCP: TRACE;

ROCHESTER +    FAIR      63  23  22 E13       30.31F
SOUTH BEND     FAIR      60  22  23 E14G22    30.33F
6HR MIN TEMP:  43; 6HR MAX TEMP:  60;

WARSAW +       FAIR      59  25  27 E10G18    30.32F

$$

INZ006>009-017-018-025>027-221900-
NORTHEAST INDIANA

CITY           SKY/WX    TMP DP  RH WIND       PRES   REMARKS
FORT WAYNE     PTSUNNY   61  30  31 E14       30.32F
6HR MIN TEMP:  42; 6HR MAX TEMP:  61;


$$

INZ028-029-035-036-043>045-051>053-221900-
WEST CENTRAL INDIANA

CITY           SKY/WX    TMP DP  RH WIND       PRES   REMARKS
LAFAYETTE      FAIR      61  31  32 E15       30.25F
6HR MIN TEMP:  44; 6HR MAX TEMP:  61;

TERRE HAUTE    FAIR      65  36  34 NE10      30.19F
6HR MIN TEMP:  48; 6HR MAX TEMP:  65;


$$

INZ030>032-037>040-046>048-054>057-064-065-221900-
CENTRAL INDIANA

CITY           SKY/WX    TMP DP  RH WIND       PRES   REMARKS
COLUMBUS       MOSUNNY   68 N/A N/A E14       30.22F
GREENWOOD *+   FAIR      62  33  33 E14       30.23F
6HR MIN TEMP:  46; 6HR MAX TEMP:  62;

INDIANAPOLIS   PTSUNNY   61  31  32 E16       30.23F
6HR MIN TEMP:  48; 6HR MAX TEMP:  61;

-EAGLE CREEK   FAIR      62  32  32 NE14      30.23F
6HR MIN TEMP:  47; 6HR MAX TEMP:  62;

KOKOMO +       FAIR      62  29  28 E15       30.28F
6HR MIN TEMP:  43; 6HR MAX TEMP:  62;

SHELBYVILLE    FAIR      64  31  28 NE17      30.23F
6HR MIN TEMP:  48; 6HR MAX TEMP:  64;

ZIONSVILLE +   FAIR      60  29  31 E14G20    30.26F
6HR MIN TEMP:  43; 6HR MAX TEMP:  61;


$$

INZ033-034-041-042-049-050-058-059-221900-
EAST CENTRAL INDIANA

CITY           SKY/WX    TMP DP  RH WIND       PRES   REMARKS
MUNCIE         FAIR      64  28  25 E13G22    30.28F
6HR MIN TEMP:  44; 6HR MAX TEMP:  64;

RICHMOND +     FAIR      61  30  31 NE12G20   30.28S

$$

INZ060-061-067>069-081>083-085>088-221900-
SOUTHWEST INDIANA

CITY           SKY/WX    TMP DP  RH WIND       PRES   REMARKS
EVANSVILLE     PTSUNNY   69  45  41 E9G17     30.12F
6HR MIN TEMP:  52; 6HR MAX TEMP:  69;

HUNTINGBURG +  FAIR      69  46  43 SE10      30.15F
6HR MIN TEMP:  53; 6HR MAX TEMP:  69;


$$

INZ062-063-066-070>080-084-089>092-221900-
SOUTH CENTRAL AND SOUTHEAST INDIANA

CITY           SKY/WX    TMP DP  RH WIND       PRES   REMARKS
BLOOMINGTON    FAIR      66  33  29 NE9       30.18F
6HR MIN TEMP:  50; 6HR MAX TEMP:  68;

SEYMOUR +      FAIR      68  39  34 NE12      30.20F

$$





USA.gov is the U.S. government's official web portal to all federal, state and local government web resources and services.